Location: *
(44.1392°N, 4.8079°E)
Time: 21:08:14
(UTC+00:00)

Cosmos 1515 Rocket - Pass Details

Date: 21 June 2021
Orbit: 607 x 629 km, 82.5° (Epoch: 01 August)

Event Time Altitude Azimuth Distance (km) Brightness Sun altitude
Rises 03:13:24 0° 345° (NNW) 2,911 7.4 -7.0°
Reaches altitude 10° 03:15:41 10° 340° (NNW) 2,003 6.5 -6.7°
Maximum altitude 03:19:56 47° 267° (W) 836 3.9 -6.1°
Drops below altitude 10° 03:24:10 10° 194° (SSW) 1,998 5.7 -5.6°
Sets 03:26:27 0° 188° (S) 2,902 6.5 -5.2°
